Location: Newark
(37.3167°N, 13.4667°E)
Time: 21:30:02
(UTC+00:00)

Hubble Space Telescope - Visible Passes

Search period start: 22 October 2019 00:00
Search period end: 01 November 2019 00:00
Orbit: 536 x 540 km, 28.5° (Epoch: 21 October)

Date Brightness Start Highest point End Pass type
(mag) Time Alt. Az. Time Alt. Az. Time Alt. Az.
28 Oct 3.3 04:55:18 10° SSW 04:57:57 17° SSE 05:00:35 10° SE visible
29 Oct 3.0 04:44:22 10° SSW 04:47:16 18° SSE 04:50:10 10° ESE visible
30 Oct 2.9 04:33:31 10° SW 04:36:36 20° S 04:39:40 10° ESE visible
31 Oct 2.7 04:22:44 10° SW 04:25:56 22° S 04:29:08 10° ESE visible
